Tracking 32422 objects as of 7-Dec-2025
HD Live streaming from Space Station
objects crossing your sky now

FENGYUN 1C DEB

Track FENGYUN 1C DEB now!
10-day predictions


NORAD ID: 32241
Int'l Code: 1999-025CWP
Perigee: 698.9 km
Apogee: 908.3 km
Inclination: 99.1 °
Period: 100.8 minutes
Semi major axis: 7174 km
RCS: 0.0127 m2 (small)
Launch date: May 10, 1999
Source: People's Republic of China (PRC)
Launch site: Taiyaun Space Center, China (TSC)

Note: This is SATELLITE DEBRIS
Your satellite tracking list
Your tracking list is empty




NASA's NSSDC Master Catalog

Two Line Element Set (TLE):
1 32241U 99025CWP 25334.89006664  .00004696  00000-0  16864-2 0  9995
2 32241  99.0795   3.8635 0145946 257.6893 100.7915 14.28586446936545
Source of the keplerian elements: AFSPC